******************************************************************************* JPL/HORIZONS 109P/Swift-Tuttle 2025-Dec-12 17:41:42 Rec #:90000981 (+COV) Soln.date: 2001-Oct-09_15:34:49 # obs: 652 (1737-1995) IAU76/J2000 helio. ecliptic osc. elements (au, days, deg., period=Julian yrs): EPOCH= 2450000.5 ! 1995-Oct-10.0000000 (TDB) RMSW= n.a. EC= .9632257550460384 QR= .9595161550688684 TP= 2448968.4997845562 OM= 139.3811920815948 W= 152.9821676305871 IN= 113.4538169971712 A= 26.09206949782666 MA= 7.631696167124793 ADIST= 51.22462284058444 PER= 133.2818438405 N= .007395053 ANGMOM= .023609822 DAN= 13.27557 DDN= 1.0138 L= 330.8536722 B= 24.6287339 MOID= .00089214 TP= 1992-Dec-11.9997845562 Comet physical (GM= km^3/s^2; RAD= km): GM= n.a. RAD= 13. M1= 4.5 M2= 8.5 k1= 15. k2= 10. PHCOF= n.a. COMET comments 1: soln ref.= JPL#32, data arc: 1737-07-08 to 1995-03-29 2: k1=15.0, k2=10.0; ******************************************************************************* ******************************************************************************* Ephemeris / WWW_USER Fri Dec 12 17:41:42 2025 Pasadena, USA / Horizons ******************************************************************************* Target body name: 109P/Swift-Tuttle {source: JPL#32} Center body name: Earth (399) {source: DE441} Center-site name: GEOCENTRIC ******************************************************************************* Start time : A.D. 2126-Aug-05 15:50:00.0000 UT Stop time : A.D. 2126-Aug-06 00:00:00.0000 UT Step-size : 1440 minutes ******************************************************************************* Target pole/equ : undefined Target radii : 13. km Center geodetic : 0.0, 0.0, -6378.137 {E-lon(deg),Lat(deg),Alt(km)} Center cylindric: 0.0, 0.0, 0.0 {E-lon(deg),Dxy(km),Dz(km)} Center pole/equ : ITRF93 {East-longitude positive} Center radii : 6378.137, 6378.137, 6356.752 km {Equator_a, b, pole_c} Target primary : Sun Vis. interferer : MOON (R_eq= 1737.400) km {source: DE441} Rel. light bend : Sun {source: DE441} Rel. lght bnd GM: 1.3271E+11 km^3/s^2 Small-body perts: Yes {source: SB441-N16} Atmos refraction: NO (AIRLESS) RA format : HMS Time format : CAL Calendar mode : Mixed Julian/Gregorian EOP file : eop.251212.p260310 EOP coverage : DATA-BASED 1962-JAN-20 TO 2025-DEC-12. PREDICTS-> 2026-MAR-09 Units conversion: 1 au= 149597870.700 km, c= 299792.458 km/s, 1 day= 86400.0 s Table cut-offs 1: Elevation (-90.0deg=NO ),Airmass (>38.000=NO), Daylight (NO ) Table cut-offs 2: Solar elongation ( 0.0,180.0=NO ),Local Hour Angle( 0.0=NO ) Table cut-offs 3: RA/DEC angular rate ( 0.0=NO ) ******************************************************************************* Initial IAU76/J2000 heliocentric ecliptic osculating elements (au, days, deg.): EPOCH= 2450000.5 ! 1995-Oct-10.0000000 (TDB) RMSW= n.a. EC= .9632257550460384 QR= .9595161550688684 TP= 2448968.4997845562 OM= 139.3811920815948 W= 152.9821676305871 IN= 113.4538169971712 Equivalent ICRF heliocentric cartesian coordinates (au, au/d): X=-5.961434623156935E+00 Y= 3.700438936751722E+00 Z=-6.922297729421842E+00 VX=-5.226325508711362E-03 VY= 3.593351825095821E-03 VZ=-2.911438559166090E-03 Comet physical (GM= km^3/s^2; RAD= km): GM= n.a. RAD= 13. M1= 4.5 M2= 8.5 k1= 15. k2= 10. PHCOF= n.a. ******************************************************************************************************************************** Date__(UT)__HR:MN r rdot delta deldot VmagSn VmagOb RNG_3sigma RNGRT_3sig ******************************************************************************************************************************** $$SOE 2126-Aug-05 15:50 1.042676552757 11.6486231 0.15336488297243 -0.0000509 40.8428062 58.3400423 10841.7774 0.0007400 $$EOE ******************************************************************************************************************************** Column meaning: TIME Times PRIOR to 1962 are UT1, a mean-solar time closely related to the prior but now-deprecated GMT. Times AFTER 1962 are in UTC, the current civil or "wall-clock" time-scale. UTC is kept within 0.9 seconds of UT1 using integer leap-seconds for 1972 and later years. Conversion from the internal Barycentric Dynamical Time (TDB) of solar system dynamics to the non-uniform civil UT time-scale requested for output has not been determined for UTC times after the next July or January 1st. Therefore, the last known leap-second is used as a constant over future intervals. Time tags refer to the UT time-scale conversion from TDB on Earth regardless of observer location within the solar system, although clock rates may differ due to the local gravity field and no analog to "UT" may be defined for that location. Any 'b' symbol in the 1st-column denotes a B.C. date. First-column blank (" ") denotes an A.D. date. CALENDAR SYSTEM Mixed calendar mode was active such that calendar dates after AD 1582-Oct-15 (if any) are in the modern Gregorian system. Dates prior to 1582-Oct-5 (if any) are in the Julian calendar system, which is automatically extended for dates prior to its adoption on 45-Jan-1 BC. The Julian calendar is useful for matching historical dates. The Gregorian calendar more accurately corresponds to the Earth's orbital motion and seasons. A "Gregorian-only" calendar mode is available if such physical events are the primary interest. NOTE: "n.a." in output means quantity "not available" at the print-time. STATISTICAL UNCERTAINTIES Output includes formal +/- 3 standard-deviation statistical orbit uncertainty quantities. There is a 99.7% (1-D) or 98.9% (2-D) chance the actual value is within given bounds. These statistical calculations assume observational data errors are random. If there are systematic biases (such as timing, reduction or star-catalog errors), results can be optimistic. Because the epoch covariance is mapped using linearized variational partial derivatives, results can also be optimistic for times far from the solution epoch, particularly for objects having close planetary encounters. 'r rdot' = The Sun's apparent range ("r", light-time aberrated) and range-rate ("rdot") relative to the target center, as seen by the observer. A positive "rdot" means the target center was moving away from the Sun, negative means moving toward the Sun. Units: AU and KM/S 'delta deldot' = Apparent range ("delta", light-time aberrated) and range-rate ("delta-dot") of the target center relative to the observer. A positive "deldot" means the target center is moving away from the observer, negative indicates movement toward the observer. Units: AU and KM/S 'VmagSn VmagOb' = Magnitude of target centers' velocity with respect to the Sun ("VmagSn") and the observer ("VmagOb") at the time light left the target center to be observed (print time minus down-leg light-time). These are absolute values of the velocity vectors (total speeds) and do NOT indicate direction of motion. Units: KM/S 'RNG_3sigma RNGRT_3sig' = Range and range rate (radial velocity) formal 3-standard-deviation uncertainties. Units: KM, KM/S Computations by ... Solar System Dynamics Group, Horizons On-Line Ephemeris System 4800 Oak Grove Drive, Jet Propulsion Laboratory Pasadena, CA 91109 USA General site: https://ssd.jpl.nasa.gov/ Mailing list: https://ssd.jpl.nasa.gov/email_list.html System news : https://ssd.jpl.nasa.gov/horizons/news.html User Guide : https://ssd.jpl.nasa.gov/horizons/manual.html Connect : browser https://ssd.jpl.nasa.gov/horizons/app.html#/x API https://ssd-api.jpl.nasa.gov/doc/horizons.html command-line telnet ssd.jpl.nasa.gov 6775 e-mail/batch https://ssd.jpl.nasa.gov/ftp/ssd/horizons_batch.txt scripts https://ssd.jpl.nasa.gov/ftp/ssd/SCRIPTS Author : Jon.D.Giorgini@jpl.nasa.gov ******************************************************************************************************************************** !$$SOF COMMAND = 'DES=109P;CAP' QUANTITIES = '19,20,22,39' START_TIME = '2126-08-05 15:50' STEP_SIZE = '1 day' STOP_TIME = '2126-08-06'